Horn Island Observation History
Time Wind Speed Temp Pressure Rel. Hum Rain
03/01:00pm ENE 7-11 kts 29.9°c 1009.5 hPa 75% 0.0mm
03/12:30pm E 8-13 kts 30.0°c 1010.1 hPa 75% 0.0mm
03/12:00pm ENE 7-11 kts 29.3°c 1010.7 hPa 75% 0.0mm
03/11:30am E 7-11 kts 29.9°c 1011.2 hPa 75% 0.0mm
03/11:00am E 7-10 kts 30.0°c 1011.7 hPa 76% 0.0mm
03/10:30am ENE 6-9 kts 29.5°c 1012.0 hPa 76% 0.0mm
03/10:00am NE 7-9 kts 29.6°c 1012.1 hPa 77% 0.0mm
03/09:30am E 7-11 kts 29.3°c 1012.0 hPa 78% 0.0mm
03/09:00am ESE 6-9 kts 29.2°c 1011.8 hPa 79% 0.0mm
03/08:30am E 6-9 kts 29.0°c 1011.5 hPa 81% 0.0mm
03/08:00am E 6-8 kts 28.5°c 1011.2 hPa 83% 0.0mm
03/07:30am CALM 0-3 kts 26.7°c 1010.9 hPa 85% 0.0mm
03/07:00am ESE 3-4 kts 24.8°c 1010.5 hPa 85% 0.0mm
03/06:30am CALM 0 kts 24.5°c 1010.0 hPa 84% 0.0mm
03/06:00am CALM 0 kts 24.5°c 1009.8 hPa 83% 0.0mm
03/05:30am CALM 0 kts 24.8°c 1009.3 hPa 82% 0.0mm
03/05:00am E 3 kts 25.2°c 1009.1 hPa 82% 0.0mm
03/04:30am E 4 kts 26.1°c 1009.0 hPa 81% 0.0mm
03/04:00am E 5-7 kts 26.5°c 1008.9 hPa 80% 0.0mm
03/03:30am E 5-7 kts 26.5°c 1009.0 hPa 80% 0.0mm
03/03:00am E 6-7 kts 26.8°c 1009.1 hPa 80% 0.0mm
03/02:30am E 7-9 kts 26.9°c 1009.2 hPa 80% 0.0mm
03/02:00am ESE 8-11 kts 27.1°c 1009.5 hPa 79% 0.0mm
03/01:30am E 9-12 kts 27.2°c 1009.7 hPa 80% 0.0mm
03/01:00am E 8-11 kts 27.1°c 1010.0 hPa 80% 0.0mm
03/12:30am ESE 8-11 kts 27.2°c 1010.2 hPa 80% 0.0mm
03/12:00am ESE 6-9 kts 27.1°c 1010.3 hPa 80% 0.0mm
Time Wind Speed Temp Pressure Rel. Hum Rain
02/11:30pm ESE 6-8 kts 27.1°c 1010.6 hPa 80% 0.0mm
02/11:00pm ESE 7-9 kts 27.0°c 1010.4 hPa 79% 0.0mm
02/10:30pm ESE 7-11 kts 27.1°c 1010.4 hPa 78% 0.0mm
02/10:00pm ESE 7-10 kts 27.2°c 1010.4 hPa 78% 0.0mm
02/09:30pm ESE 9-13 kts 27.4°c 1010.4 hPa 77% 0.0mm
02/09:00pm ESE 9-13 kts 27.6°c 1010.3 hPa 76% 0.0mm
02/08:30pm ESE 8-12 kts 27.4°c 1010.1 hPa 76% 0.0mm
02/08:00pm ESE 9-14 kts 27.5°c 1009.7 hPa 75% 0.0mm
02/07:30pm ESE 9-11 kts 27.5°c 1009.4 hPa 73% 0.0mm
02/07:00pm ESE 11-14 kts 27.8°c 1009.1 hPa 72% 0.0mm
02/06:30pm ESE 11-14 kts 28.0°c 1009.1 hPa 70% 0.0mm
02/06:00pm ESE 10-15 kts 28.5°c 1008.9 hPa 70% 0.0mm
02/05:30pm ESE 12-16 kts 29.1°c 1008.5 hPa 70% 0.0mm
02/05:00pm ESE 13-17 kts 29.4°c 1008.1 hPa 70% 0.0mm
02/04:30pm ESE 14-19 kts 29.8°c 1007.7 hPa 72% 0.0mm
02/04:00pm ESE 15-19 kts 29.8°c 1007.7 hPa 73% 0.0mm
02/03:30pm ESE 14-19 kts 30.1°c 1007.9 hPa 73% 0.0mm
02/03:00pm ESE 13-17 kts 30.2°c 1008.3 hPa 73% 0.0mm
02/02:30pm ESE 13-17 kts 30.1°c 1008.5 hPa 73% 0.0mm
02/02:00pm ESE 13-17 kts 30.7°c 1008.8 hPa 75% 0.0mm
02/01:30pm ESE 14-18 kts 30.2°c 1009.2 hPa 76% 0.0mm
02/01:00pm ESE 13-18 kts 30.7°c 1009.5 hPa 77% 0.0mm
02/12:30pm ESE 13-17 kts 30.5°c 1009.8 hPa 78% 0.0mm
02/12:00pm ESE 14-19 kts 30.0°c 1010.2 hPa 79% 0.0mm
02/11:30am ESE 14-20 kts 29.6°c 1010.7 hPa 79% 0.0mm
02/11:00am ESE 15-21 kts 29.5°c 1011.0 hPa 80% 0.0mm
02/10:30am ESE 14-18 kts 29.5°c 1011.4 hPa 82% 0.0mm
02/10:00am SE 13-18 kts 28.9°c 1011.8 hPa 83% 0.0mm
02/09:30am SE 11-15 kts 28.6°c 1011.8 hPa 84% 0.0mm
02/09:00am SE 10-13 kts 28.1°c 1011.3 hPa 85% 1.4mm
02/08:30am SE 8-11 kts 27.7°c 1011.0 hPa 86% 1.4mm
02/08:00am SSE 8-10 kts 27.0°c 1010.7 hPa 87% 1.4mm
02/07:30am SSE 8-10 kts 26.8°c 1010.2 hPa 88% 1.4mm
02/07:00am SSE 7-10 kts 26.3°c 1009.8 hPa 88% 1.4mm
02/06:30am SSE 7-9 kts 26.2°c 1009.1 hPa 88% 1.4mm
02/06:00am SSE 6-9 kts 26.0°c 1008.8 hPa 88% 1.4mm
02/05:30am SSE 9-12 kts 26.1°c 1008.4 hPa 88% 1.4mm
02/05:00am SSE 6-7 kts 25.9°c 1008.3 hPa 88% 1.4mm
02/04:30am SSE 6-8 kts 25.8°c 1008.0 hPa 88% 1.4mm
02/04:00am SE 11-16 kts 25.9°c 1008.0 hPa 87% 1.4mm
02/03:58am SE 11-16 kts 26.0°c 1008.1 hPa 87% 1.4mm
02/03:42am SSE 9-14 kts 26.2°c 1008.2 hPa 87% 1.4mm
02/03:30am SSE 8-13 kts 26.4°c 1008.2 hPa 87% 1.4mm
02/03:00am SSE 6-9 kts 26.2°c 1008.5 hPa 87% 1.4mm
02/02:30am SSE 7-10 kts 26.2°c 1008.7 hPa 87% 1.4mm
02/02:00am SSE 7-10 kts 26.3°c 1008.7 hPa 86% 1.4mm
02/01:30am S 7-9 kts 26.3°c 1009.0 hPa 86% 1.4mm
02/01:00am S 8-11 kts 26.5°c 1008.9 hPa 86% 1.4mm
02/12:30am SSE 10-15 kts 26.7°c 1009.3 hPa 86% 1.4mm
02/12:00am SSE 11-17 kts 26.9°c 1009.7 hPa 86% 1.4mm
Time Wind Speed Temp Pressure Rel. Hum Rain
01/11:57pm SSE 11-17 kts 26.9°c 1009.7 hPa 86% 1.4mm
01/11:30pm SSE 9-14 kts 26.7°c 1009.6 hPa 86% 1.4mm
01/11:00pm SSE 9-14 kts 26.8°c 1009.9 hPa 86% 1.4mm
01/10:30pm SSE 10-15 kts 26.7°c 1009.7 hPa 86% 1.4mm
01/10:00pm SSE 9-12 kts 26.8°c 1009.5 hPa 86% 1.4mm
01/09:30pm SSE 9-12 kts 26.8°c 1009.2 hPa 85% 1.4mm
01/09:09pm SSE 9-12 kts 26.8°c 1009.2 hPa 85% 1.4mm
01/09:00pm SSE 9-13 kts 26.8°c 1009.2 hPa 85% 1.4mm
01/08:52pm SSE 10-14 kts 26.8°c 1009.1 hPa 85% 1.4mm
01/08:37pm SSE 13-18 kts 26.9°c 1009.0 hPa 85% 1.4mm
01/08:30pm SSE 13-18 kts 27.0°c 1009.0 hPa 85% 1.4mm
01/08:00pm SSE 11-16 kts 27.1°c 1008.9 hPa 85% 1.4mm
01/07:30pm SSE 11-16 kts 27.2°c 1008.6 hPa 86% 1.4mm
01/07:00pm SSE 8-12 kts 26.6°c 1008.5 hPa 86% 1.4mm
01/06:30pm SSE 10-13 kts 26.6°c 1008.3 hPa 85% 1.4mm
01/06:00pm SE 10-13 kts 27.1°c 1008.2 hPa 85% 1.4mm
01/05:30pm SE 12-17 kts 27.3°c 1008.0 hPa 85% 1.4mm
01/05:00pm SE 11-16 kts 27.7°c 1007.5 hPa 85% 1.4mm
01/04:30pm SE 13-21 kts 27.0°c 1007.5 hPa 86% 1.4mm
01/04:09pm SE 13-20 kts 26.8°c 1007.5 hPa 86% 1.4mm
01/04:00pm SE 14-20 kts 26.3°c 1007.4 hPa 85% 1.4mm
01/03:48pm SE 16-22 kts 26.3°c 1007.4 hPa 85% 0.6mm
01/03:30pm SE 16-22 kts 26.8°c 1007.4 hPa 85% 0.4mm
01/03:17pm SE 11-28 kts 27.1°c 1007.4 hPa 84% 0.4mm
01/03:00pm SSE 10-14 kts 27.3°c 1007.0 hPa 84% 0.4mm
01/02:30pm SSE 11-16 kts 27.0°c 1007.5 hPa 82% 0.2mm
01/02:00pm SSE 16-23 kts 28.7°c 1007.8 hPa 80% 0.2mm
01/01:30pm SE 13-17 kts 28.8°c 1007.6 hPa 80% 0.2mm
01/01:00pm SE 14-20 kts 29.3°c 1008.0 hPa 81% 0.2mm
01/12:30pm SE 13-18 kts 29.0°c 1008.6 hPa 82% 0.0mm
01/12:00pm SE 12-18 kts 28.4°c 1009.0 hPa 83% 0.0mm
01/11:30am SE 13-19 kts 28.2°c 1009.2 hPa 84% 0.0mm
01/11:00am SE 15-21 kts 28.2°c 1009.4 hPa 85% 0.0mm
01/10:59am SE 15-21 kts 28.1°c 1009.4 hPa 85% 0.0mm
01/10:48am SE 15-25 kts 27.8°c 1009.6 hPa 85% 0.0mm
01/10:30am SE 11-17 kts 27.9°c 1009.8 hPa 85% 0.0mm
01/10:00am SSE 12-16 kts 27.7°c 1009.6 hPa 86% 0.0mm
01/09:30am SSE 11-14 kts 27.6°c 1009.4 hPa 86% 0.0mm
01/09:00am SE 12-17 kts 27.6°c 1009.6 hPa 87% 27.2mm
01/08:30am SE 11-17 kts 26.7°c 1009.6 hPa 88% 27.2mm
01/08:00am SE 13-17 kts 26.5°c 1009.3 hPa 88% 27.2mm
01/07:30am SSE 8-12 kts 26.3°c 1008.9 hPa 88% 27.2mm
01/07:00am SSE 11-18 kts 26.5°c 1008.5 hPa 88% 27.2mm
01/06:30am S 8-11 kts 26.2°c 1008.0 hPa 88% 27.2mm
01/06:08am S 9-13 kts 26.2°c 1007.8 hPa 88% 27.2mm
01/06:00am S 10-15 kts 26.1°c 1007.7 hPa 88% 27.2mm
01/05:54am S 9-15 kts 26.2°c 1007.7 hPa 89% 27.2mm
01/05:30am S 8-12 kts 25.8°c 1007.5 hPa 89% 27.2mm
01/05:20am S 9-12 kts 25.8°c 1007.3 hPa 89% 27.2mm
01/05:00am S 10-14 kts 26.0°c 1007.1 hPa 88% 27.2mm
01/04:53am S 9-13 kts 26.0°c 1007.2 hPa 88% 27.2mm
01/04:30am S 10-16 kts 26.0°c 1006.9 hPa 88% 27.2mm
01/04:00am SSE 10-15 kts 26.2°c 1007.0 hPa 88% 27.2mm
01/03:30am S 9-12 kts 26.2°c 1007.2 hPa 88% 27.2mm
01/03:00am S 8-11 kts 26.1°c 1007.2 hPa 88% 27.2mm
01/02:43am S 7-12 kts 26.1°c 1007.4 hPa 88% 27.2mm
01/02:33am S 7-9 kts 26.0°c 1007.4 hPa 88% 27.2mm
01/02:32am S 7-9 kts 26.0°c 1007.4 hPa 88% 27.2mm
01/02:30am SSW 7-11 kts 26.0°c 1007.4 hPa 88% 27.2mm
01/02:16am S 7-10 kts 26.1°c 1007.7 hPa 88% 27.2mm
01/02:00am S 9-16 kts 26.0°c 1007.9 hPa 88% 27.2mm
01/01:54am S 8-11 kts 26.1°c 1007.9 hPa 87% 27.2mm
01/01:39am S 8-15 kts 26.1°c 1008.1 hPa 87% 27.2mm
01/01:30am S 8-11 kts 26.4°c 1008.2 hPa 87% 27.0mm
01/01:00am S 7-9 kts 26.2°c 1008.3 hPa 87% 27.0mm
01/12:30am S 7-12 kts 26.1°c 1008.8 hPa 87% 27.0mm
01/12:27am S 7-12 kts 26.1°c 1008.9 hPa 87% 27.0mm
01/12:04am S 5-7 kts 26.4°c 1009.2 hPa 86% 27.0mm
01/12:00am S 5-7 kts 26.5°c 1009.2 hPa 86% 27.0mm